Regional Weather Roundup
Issued by NWS

Home | Current Version | Previous Version | Text Only | Print | Product List | Glossary Off
Versions: 1 2 3 4 5 6 7 8 9 10 11 12 13 14 15 16 17 18 19 20 21 22 23 24 25 26 27 28

000
ASUS45 KPSR 151310
RWRAZ

ARIZONA HOURLY REGIONAL WEATHER ROUNDUP
NATIONAL WEATHER SERVICE PHOENIX AZ
600 AM MST MON JAN 15 2018

NOTE: FAIR INDICATES FEW OR NO CLOUDS BELOW 12,000 FEET WITH NO
SIGNIFICANT WEATHER AND/OR OBSTRUCTIONS TO VISIBILITY.

AZZ001>003-036-151400-
NORTHWEST ARIZONA

CITY           SKY/WX    TMP DP  RH WIND       PRES   REMARKS
BULLHEAD CITY  MOCLDY    52  41  66 S3        30.11S
KINGMAN        MOCLDY    40  33  76 SE5       30.17F
$$

AZZ004>008-015-016-018-151400-
NORTH CENTRAL ARIZONA

CITY           SKY/WX    TMP DP  RH WIND       PRES   REMARKS
GRAND CANYON   PTCLDY    25  22  88 CALM      30.26S
WILLIAMS       PTCLDY    28  21  74 S7        30.24R WCI  21
PRESCOTT       MOCLDY    34  25  69 S3        30.22S
FLAGSTAFF      PTCLDY    25  21  85 CALM      30.26R
PAYSON         MOCLDY    39  23  52 CALM      30.21S
PAGE           PTCLDY    34  28  79 CALM      30.23S
$$

AZZ009>014-017-151400-
NORTHEAST ARIZONA

CITY           SKY/WX    TMP DP  RH WIND       PRES   REMARKS
WINSLOW        MOCLDY    20  11  68 CALM      30.26R
SAINT JOHNS    MOCLDY    29  20  69 S5        30.23S WCI  24
WINDOW ROCK    PTCLDY    18  15  88 CALM      30.25F
SHOW LOW       PTCLDY    28  21  74 S7        30.25S WCI  21
$$

AZZ540-542>544-546-548-151400-
GREATER PHOENIX AREA

CITY           SKY/WX    TMP DP  RH WIND       PRES   REMARKS
PHOENIX        MOCLDY    51  34  52 E5        30.09R
BUCKEYE        CLOUDY    46  36  66 NE6       30.09S
GLENDALE       PTCLDY    46  37  71 CALM      30.11
LUKE AFB       PTCLDY    45  37  73 N7        30.08S
DEER VALLEY    CLEAR     49  33  54 E3        30.09S
SCOTTSDALE     CLEAR     50  35  56 CALM      30.11R
MESA-FALCON    PTCLDY    50  32  50 N6        30.11
MESA-GATEWAY   CLEAR     48  30  49 E9        30.11R
CHANDLER       CLEAR     45  36  70 E3        30.10
$$

AZZ539-553-151400-
SOUTHWEST MARICOPA COUNTY AND PINAL COUNTY

CITY           SKY/WX    TMP DP  RH WIND       PRES   REMARKS
CASA GRANDE    NOT AVBL
GILA BEND      CLOUDY    46  34  62 SE7       30.08F
$$

AZZ503-504-507>509-151400-
SOUTHEAST ARIZONA

CITY           SKY/WX    TMP DP  RH WIND       PRES   REMARKS
TUCSON         CLEAR     47  21  35 SE8       30.14R
DAVIS-MONTHAN  MOCLDY    46  19  33 SE12      30.12R
RYAN FIELD     CLEAR     43  21  42 MISG      30.13
NOGALES        CLEAR     39  21  48 CALM      30.16R
SIERRA VISTA   CLEAR     41  16  36 W3        30.19R
DOUGLAS        PTCLDY    32  18  56 CALM      30.19R
SAFFORD        CLEAR     42  20  41 SE10      30.16R
$$

AZZ532-151400-
SOUTHWEST ARIZONA

CITY           SKY/WX    TMP DP  RH WIND       PRES   REMARKS
YUMA           CLOUDY    52  37  56 CALM      30.07R
$$

CAZ041-043-047-048-061-525>527-560>570-151400-
SOUTHERN CALIFORNIA

CITY           SKY/WX    TMP DP  RH WIND       PRES   REMARKS
DOWNTOWN L.A.  CLEAR     52  41  66 CALM      30.07F
L.A. AIRPORT   MOCLDY    54  42  64 CALM      30.08F
SAN DIEGO      PTCLDY    54  41  61 CALM      30.09F
BURBANK        CLEAR     51  40  65 CALM      30.08F
ONTARIO        MOCLDY    52  35  52 CALM      30.09F
RIVERSIDE      CLEAR     50  38  63 NE7       30.09F
PALM SPRINGS   CLEAR     59  34  39 NW6       30.10S
EL CENTRO NAS  CLEAR     46  28  49 SW7       30.09S
IMPERIAL       CLEAR     49  31  49 W6        30.07S
BLYTHE         PTCLDY    46  36  68 NW6       30.09F
NEEDLES        MOCLDY    52  39  61 SW3       30.11S
$$

NVZ020-UTZ003-151400-
SOUTHERN NEVADA-UTAH

CITY           SKY/WX    TMP DP  RH WIND       PRES   REMARKS
LAS VEGAS      CLOUDY    48  37  65 S5        30.15F
SALT LAKE CITY PTCLDY    31  27  85 CALM      30.32F
$$

NMZ009-TXZ055-151400-
NEW MEXICO-WEST TEXAS

CITY           SKY/WX    TMP DP  RH WIND       PRES   REMARKS
ALBUQUERQUE    PTCLDY    28  17  63 CALM      30.23S
EL PASO        PTCLDY    33  20  58 E3        30.18S
$$


........................KEY........................
SKY/WX - SKY CONDITION/WEATHER
TMP    - TEMPERATURE IN FAHRENHEIT
DP     - DEW POINT IN FAHRENHEIT
RH     - RELATIVE HUMIDITY IN PERCENT
WIND   - DIRECTION AND SPEED IN MILES PER HOUR (MPH)
VRB    - VARIABLE WIND DIRECTION
PRES   - MEAN SEA LEVEL PRESSURE IN INCHES OF MERCURY
         F - FALLING PRESSURE   R - RISING PRESSURE
         S - STEADY PRESSURE
VSB    - VISIBILITY IN MILES
HX     - HEAT INDEX IN FAHRENHEIT
WCI    - WIND CHILL INDEX IN FAHRENHEIT
TC     - TEMPERATURE IN CELSIUS WHICH IS ALSO KNOWN AS
         TEMPERATURE IN CENTIGRADE
AFB    - AIR FORCE BASE
         LUKE AFB IS LUKE AIR FORCE BASE
         DAVIS-MONTHAN IS DAVIS-MONTHAN AIR FORCE BASE
NAS    - NAVAL AIR STATION
         EL CENTRO NAS IS EL CENTRO NAVAL AIR STATION
N/A    - NOT AVAILABLE





USA.gov is the U.S. government's official web portal to all federal, state and local government web resources and services.